WetterOnline ( https://www.wetteronline.de )

Wetter aktuell Dingolfing

Aktuelles Wetter: Gottfrieding (350m)

6-stündlich | Neueste Meldungen
Ortszeit Temperatur Wetter
Mi, 05.08. 8:00 11.6° C Nebel
Mi, 05.08. 2:00 12.4° C bedeckt
Di, 04.08. 20:00 15.6° C bedeckt
Di, 04.08. 14:00 14.5° C leichter Regen
Di, 04.08. 8:00 13.4° C leichter Regen
Di, 04.08. 2:00 14.9° C Regen
Mo, 03.08. 20:00 18.5° C leichter Regen
Mo, 03.08. 14:00 19.2° C bedeckt
Ortszeit Temperatur Wetter
Mi, 05.08. 10:30 15.0° C bewölkt
Mi, 05.08. 10:20 15.0° C bewölkt
Mi, 05.08. 10:10 15.4° C bewölkt
Mi, 05.08. 10:00 13.9° C bedeckt
Mi, 05.08. 9:50 13.9° C bedeckt
Mi, 05.08. 9:40 13.6° C bedeckt
Mi, 05.08. 9:30 13.0° C bedeckt
Mi, 05.08. 9:00 12.5° C bedeckt
Mi, 05.08. 8:30 12.1° C Nebel
Mi, 05.08. 8:00 11.6° C Nebel
Mi, 05.08. 7:30 11.2° C Nebel
Ortszeit Relative Feuchte Sichtweite
Mi, 05.08. 8:00 100% 0.2 km
Mi, 05.08. 2:00 99% 13 km
Di, 04.08. 20:00 81% 60 km
Di, 04.08. 14:00 84% 30 km
Di, 04.08. 8:00 94% 10 km
Di, 04.08. 2:00 96% 9 km
Mo, 03.08. 20:00 75% 50 km
Mo, 03.08. 14:00 76% 50 km
Ortszeit Relative Feuchte Sichtweite
Mi, 05.08. 10:30 83% 22 km
Mi, 05.08. 10:20 83% -
Mi, 05.08. 10:10 80% -
Mi, 05.08. 10:00 89% 21 km
Mi, 05.08. 9:50 89% -
Mi, 05.08. 9:40 88% -
Mi, 05.08. 9:30 93% 14 km
Mi, 05.08. 9:00 99% 3.9 km
Mi, 05.08. 8:30 100% 0.5 km
Mi, 05.08. 8:00 100% 0.2 km
Mi, 05.08. 7:30 100% 0.2 km
Ortszeit Niederschlagsmenge Niederschlagsart
Mi, 05.08. 8:00 0.1 l/m2 in 12 Std. -
Mi, 05.08. 2:00 0.0 l/m2 in 6 Std. -
Di, 04.08. 20:00 10 l/m2 in 12 Std. Regen
Di, 04.08. 14:00 9 l/m2 in 6 Std. Regen
Di, 04.08. 8:00 25 l/m2 in 12 Std. Regen
Di, 04.08. 2:00 16 l/m2 in 6 Std. Regen
Mo, 03.08. 20:00 0.1 l/m2 in 3 Std. Regen
Mo, 03.08. 14:00 0.1 l/m2 in 3 Std. Regen
Ortszeit Niederschlagsmenge Niederschlagsart
Mi, 05.08. 10:30 0.0 l/m2 in 1 Std. -
Mi, 05.08. 10:20 keine Meldung -
Mi, 05.08. 10:10 keine Meldung -
Mi, 05.08. 10:00 0.0 l/m2 in 1 Std. -
Mi, 05.08. 9:50 keine Meldung -
Mi, 05.08. 9:40 keine Meldung -
Mi, 05.08. 9:30 0.0 l/m2 in 1 Std. -
Mi, 05.08. 9:00 0.1 l/m2 in 1 Std. -
Mi, 05.08. 8:30 0.0 l/m2 in 1 Std. -
Mi, 05.08. 8:00 0.1 l/m2 in 1 Std. -
Mi, 05.08. 7:30 0.0 l/m2 in 1 Std. -
Ortszeit Stärke Spitze Richtung
km/h Bft. km/h Grad Sektor
Mi, 05.08. 8:00 0 0 7 - -
Mi, 05.08. 2:00 4 1 7 270° W
Di, 04.08. 20:00 6 1 20 280° W
Di, 04.08. 14:00 11 2 24 330° NW
Di, 04.08. 8:00 7 2 31 360° N
Di, 04.08. 2:00 15 3 28 360° N
Mo, 03.08. 20:00 7 2 25 30° NO
Mo, 03.08. 14:00 13 3 20 330° NW
Ortszeit Stärke Spitze Richtung
km/h Bft. km/h Grad Sektor
Mi, 05.08. 10:30 6 1 9 90° O
Mi, 05.08. 10:20 6 1 - 90° O
Mi, 05.08. 10:10 4 1 - 140° SO
Mi, 05.08. 10:00 4 1 11 90° O
Mi, 05.08. 9:50 4 1 - 90° O
Mi, 05.08. 9:40 4 1 - 40° NO
Mi, 05.08. 9:30 4 1 7 130° SO
Mi, 05.08. 9:00 4 1 7 140° SO
Mi, 05.08. 8:30 4 1 4 170° S
Mi, 05.08. 8:00 0 0 7 - -
Mi, 05.08. 7:30 2 1 6 150° SO
Ortszeit Untergrenze Bedeckung Gattung
total tief tief mittel hoch
Mi, 05.08. 8:00 <30 m 8/8 0/8 - - -
Mi, 05.08. 2:00 1800 m 8/8 8/8 - - -
Di, 04.08. 20:00 2400 m 8/8 8/8 - - -
Di, 04.08. 14:00 1800 m 8/8 8/8 - - -
Di, 04.08. 8:00 270 m 8/8 8/8 - - -
Di, 04.08. 2:00 900 m 7/8 8/8 - - -
Mo, 03.08. 20:00 1170 m 8/8 6/8 - - -
Mo, 03.08. 14:00 2700 m 8/8 8/8 - - -
Ortszeit Bedeckungsgrad in Achtel und Wolkenuntergrenze
Mi, 05.08. 10:30 7(270m)
Mi, 05.08. 10:20 7(270m)
Mi, 05.08. 10:10 7(270m) 7(390m)
Mi, 05.08. 10:00 8(240m)
Mi, 05.08. 9:50 8(240m)
Mi, 05.08. 9:40 8(180m)
Mi, 05.08. 9:30 8(120m)
Mi, 05.08. 9:00 8(30m)
Mi, 05.08. 8:30 8(<30m)
Mi, 05.08. 8:00 8(<30m)
Mi, 05.08. 7:30 8(<30m)
Ortszeit Luftdruck NN (hPa) Tendenz (hPa in 3 Std.)
Mi, 05.08. 8:00 1021 + 0,9
Mi, 05.08. 2:00 1020 + 0,2
Di, 04.08. 20:00 1018 + 1,7
Di, 04.08. 14:00 1015 + 2,4
Di, 04.08. 8:00 1011 + 2,1
Di, 04.08. 2:00 1008 - 0,5
Mo, 03.08. 20:00 1007 - 1,0
Mo, 03.08. 14:00 1010 - 0,7
Ortszeit Luftdruck NN (hPa) Tendenz (hPa in 3 Std.)
Mi, 05.08. 10:30 1021 + 0,1
Mi, 05.08. 10:20 1021 keine Meldung
Mi, 05.08. 10:10 1021 keine Meldung
Mi, 05.08. 10:00 1021 + 0,2
Mi, 05.08. 9:50 1021 keine Meldung
Mi, 05.08. 9:40 1021 keine Meldung
Mi, 05.08. 9:30 1021 + 0,4
Mi, 05.08. 9:00 1021 + 0,6
Mi, 05.08. 8:30 1021 + 0,7
Mi, 05.08. 8:00 1021 + 0,9
Mi, 05.08. 7:30 1021 + 0,8
Ortszeit Schneehöhe (cm)
Mi, 05.08. 8:00 -
Mi, 05.08. 2:00 -
Di, 04.08. 20:00 -
Di, 04.08. 14:00 -
Di, 04.08. 8:00 -
Di, 04.08. 2:00 -
Mo, 03.08. 20:00 -
Mo, 03.08. 14:00 -
Ortszeit Schneehöhe (cm)
Mi, 05.08. 10:30 -
Mi, 05.08. 10:20 -
Mi, 05.08. 10:10 -
Mi, 05.08. 10:00 -
Mi, 05.08. 9:50 -
Mi, 05.08. 9:40 -
Mi, 05.08. 9:30 -
Mi, 05.08. 9:00 -
Mi, 05.08. 8:30 -
Mi, 05.08. 8:00 -
Mi, 05.08. 7:30 -
Link zu dieser Seite / Seite empfehlen

Das Wetter in ...